Location: ??????
(41.3747°N, 22.5491°E)
Time: 04:57:40
(UTC+00:00)

Cosmos 2181 Rocket - Pass Details

Date: 01 December 2020
Orbit: 951 x 1015 km, 82.9° (Epoch: 20 January)

Event Time Altitude Azimuth Distance (km) Brightness Sun altitude
Rises 15:52:44 0° 185° (S) 3,734 7.4 -9.6°
Reaches altitude 10° 15:55:16 10° 185° (S) 2,783 6.7 -10.1°
Maximum altitude 16:01:41 90° 108° (ESE) 1,010 4.1 -11.2°
Drops below altitude 10° 16:08:05 10° 8° (N) 2,767 6.1 -12.3°
Sets 16:10:36 0° 8° (N) 3,710 6.8 -12.8°
